Погода в Виннице

Погода в Виннице : погода сейчас, прогноз погоды и архив. Всё, что Вы хотите узнать о погоде в Виннице!

Хотите узнать прогноз погоды в Виннице? Тогда Вам сюда: Погода в Виннице

Поиск расширенной информации на нашем сайте:

Другие новости

Новости СМИ2

Главная страница сайта

Новости сайта

02.10.2013

Напоминаем, что на нашем новом сайте вы можете получить высокодетализированные прогнозы погоды по пунктам России, СНГ и мира (включающие важные для авиации метеовеличины, такие как направление и скорость ветра, видимость, явления погоды, количество и форма облачности, нижняя и верхняя граница облачности), а также ознакомиться с разнообразными материалами по авиационной метеорологии и подборкой полезных ссылок на эту тему.

Сайт Метеоцентр.Азия посвящён разработке технологий оптимизации авиаметеорологического обслуживания, включая проектирование и перспективное создание нескольких автоматизированных авиаметеорологических систем:
- система выпуска высокодетальных прогностических карт явлений погоды для нижнего воздушного пространства по России и ближнему зарубежью;
- система верификации прогнозов TAF (выпускаемых синоптиками официальных АМСГ РФ и ближнего зарубежья) и AUTOTAF (выпускаемых сайтом Метеоцентр.Азия) - выявление ошибок, онлайн-сопоставление с фактической погодой METAR, автоматическое внесение коррективов в прогнозы при резком отклонении фактической погоды от прогноза, подсчёт оправдываемости прогнозов по элементам и в целом;
- система обработки, анализа и отображения авиаметеорологической информации для применения провайдерами метеорологической информации.

Рекомендуем: Авто новости

Погода в Виннице - сегодня

Время (UTC), дата Ветер
(°,м/с) 
Видим.   Явления Облачность Т
(°С)
Тd
(°С)
f(%) Тe
(°С)
Pmin
(гПа)
dP
(гПа)
Po
(мм)
O2
(г/м3)
Тmin Tmax R s Состояние
почвы
15 26.05.17 тихо ()   13000 м    9/4 600 м средняя 
[Sc|Ac trans]
+15.2 +11.3 78 +19  1014.3  -0.9  735  278           
18 26.05.17 тихо ()   13000 м    9/3 600 м кучево-дожд., средняя 
[Cb cap|Ac trans]
+14.6 +11.4 81 +18  1014  -0.3  734  279    +15.8     
21 26.05.17 300 (СЗ) 13000 м    6/3 600 м средняя 
[Sc|Ac trans]
+11.3 +9.5 89 +12  1015.2  0.7  735  283           
00 27.05.17 300 (СЗ) 13000 м    8/0 средняя, верхняя 
[Ac trans|Ci fib]
+10.3 +8.9 91 +10  1015.1  -0.2  735  284           
03 27.05.17 300 (СЗ) 8000 м  дымка  8/3 600 м кучево-дожд., средняя 
[Cb cap|Ac trans]
+9.3 +8.5 95 +9  1015.4  0.2  735  285           
09 27.05.17 330 (СЗ) 13000 м    8/6 750 м средняя 
[Cu med, cong|Ac trans]
+17.3 +11.7 70 +22  1016.6  736  277           
12 27.05.17 360 (С) 13000 м  гроза без осадков{ливн. осадки}  9/9 600 м кучево-дожд. 
[Cb cap]
+15.9 +13.2 84 +22  1016.7  736  278           
15 27.05.17 040 (СВ) 13000 м  {гроза}  9/8 700 м кучево-дожд., средняя 
[Cb cap|Ac trans]
+18 +9.7 58 +19  1017.4  0.9  737  277           
18 27.05.17 340 (С) 13000 м  {гроза}  5/4 600 м верхняя 
[Sc|Ci fib]
+15.2 +10 71 +17  1019  1.2  738  280    +19.6     
21 27.05.17 320 (СЗ) 13000 м    ясно 
+11.3 +8.2 81 +11  1021.2  1.6  739  285           
00 28.05.17 310 (СЗ) 13000 м    ясно 
+9 +7.6 91 +8  1022.4  0.9  740  287           
03 28.05.17 310 (СЗ) 13000 м    5/0 верхняя 
[Ci fib]
+8.5 +7 90 +9  1023  0.5  740  288           
06 28.05.17 310 (СЗ) 13000 м    6/0 верхняя 
[Ci fib]
+14.3 +9.7 74 +15  1023.2  0.9  741  282  +8  -2.3       
09 28.05.17 340 (С) 13000 м    8/3 1000 м верхняя 
[Cu med, cong|Ci fib]
+20 +8.5 47 +20  1022.7  0.2  741  277           
12 28.05.17 330 (СЗ) 13000 м    6/3 1500 м верхняя 
[Cu hum|Ci fib]
+21.4 +7 39 +21  1022.1  -0.4  741  276           
15 28.05.17 310 (СЗ) 13000 м    6/3 1500 м верхняя 
[Cu hum|Ci fib]
+22.2 +8.6 42 +22  1020.8  -1.2  740  274           
18 28.05.17 270 (З) 13000 м    5/0 средняя, верхняя 
[Ac trans|Ci fib]
+19.5 +9.5 52 +22  1021.1  740  277    +22.4       
21 28.05.17 230 (ЮЗ) 13000 м    5/0 верхняя 
[Ci fib]
+16.2 +11 71 +20  1021.8  0.3  740  279           
00 29.05.17 240 (ЮЗ) 13000 м    3/0 средняя 
[Ac trans]
+13.9 +9.8 76 +15  1021.7  -0.4  740  282           
03 29.05.17 220 (ЮЗ) 13000 м    5/0 верхняя 
[Ci fib]
+12.5 +10.2 86 +15  1020.8  -1  739  283           
06 29.05.17 270 (З) 13000 м    ясно 
+18.7 +11.2 62 +23  1019.7  -0.3  739  277  +12.1  +2.6       
09 29.05.17 200 (Ю) 13000 м    3/3 1000 м 
[Cu hum]
+22 +9.2 44 +22  1017.9  -1.4  738  273           
12 29.05.17 220 (ЮЗ) 13000 м    4/4 1500 м 
[Cu hum]
+23.8 +8.8 38 +24  1016.3  -1.4  737  272           
15 29.05.17 230 (ЮЗ) 13000 м    5/3 1500 м верхняя 
[Cu hum|Ci fib]
+23.3 +7.7 37 +23  1014.3  -2  735  272           
18 29.05.17 200 (Ю) 13000 м    3/0 верхняя 
[Ci fib]
+21 +9.9 49 +22  1013  -1.5  734  273           
Время (UTC), дата Ветер
(°,м/с) 
Видим.   Явления Облачность Т
(°С)
Тd
(°С)
f(%) Тe
(°С)
Pmin
(гПа)
dP
(гПа)
Po
(мм)
O2
(г/м3)
Тmin Tmax R s Состояние
почвы

Для получения пояснительной информации подведите курсор к названию столбца.

ПОГОДА в Виннице - архив

Всё, что Вы хотите узнать о погоде в Виннице - удобно и подробно!

Выберите нужную дату (начиная с 1 января 2015* года) и нажмите кнопку "Найти".
Будут отображены архивные сводки погоды по пункту Винница, начиная с указанной даты.


Отображать данные в формате CSV (для использования в таблицах Excel)


Внимание! Наш архив погоды предназначен исключительно для личного некоммерческого использования в познавательных целях. Если Вам необходимы официальные справки о состоянии погоды (для производственных, юридических, коммерческих и т.п. целей), обращайтесь в органы Росгидромета.

*Примечание: данная дата относится к архиву по метеостанциям СССР (Россия, СНГ, Балтия).
Архив по метеостанциям Зарубежной Европы и Азии (кроме Китая) хранится 10 дней, по другим регионам земного шара (Китай, Африка, Америка, Австралия, Океания) - 1 день.

Винница - район местоположения метеостанции


Название, широта, долгота, высота метеостанции:
Винница 49.2°ш. 28.6°д. 298 м над ур. моря [Украина]

Дополнительная информация

В oтличие oт бoльшинства пoгoдных сайтoв мы публикуем пoдрoбную метеoинфoрмацию в детальнoм прoфессиoнальнoм фoрмате.

Характеристики температуры и влажнoсти вoздуха измеряются на высoте 2 м в тени вдали oт зданий и деревьев.
Скoрoсть ветра измеряется на высoте 10 м (на урoвне рoста челoвека скoрoсть ветра ниже в 1.5-2 раза). Если метеoстанция нахoдится в гoрoде или в лесу, тo скoрoсть ветра занижена на 2-4 м/с пo сравнению с oткрытым местoм. Скoрoсть ветра над акватoриями крупных рек и oзёр, а также на вершинах хoлмoв на 2-5 м/с выше, чем в oбычных услoвиях.
Атмoсфернoе давление в разных тoчках местнoсти мoжет значительнo oтличаться oт давления на метеoстанции, в зависимoсти oт услoвий рельефа (при пoдъёме на 10 м давление пoнижается примернo на 1 мм рт.ст.).